Wind_Speed
9 8 8 8 8 9 9 9 10 10 10 10 9 9 9 9 9 9 9 9 8 7 7 7 7 7 7 7 6 5 5 5 5 5 5 5 5 5 6 5 5 4 3
8 8 7 7 7 7 7 8 9 9 9 9 8 8 8 8 8 8 8 8 7 7 6 6 7 6 6 6 6 5 5 5 5 4 5 5 5 5 5 5 5 5 4
7 7 7 7 6 7 7 7 8 8 8 8 7 7 7 7 7 7 7 6 6 6 5 6 6 6 5 5 6 6 5 4 5 4 4 4 4 4 5 5 5 5 4
8 8 7 7 6 7 7 7 7 8 7 7 7 6 6 6 6 6 6 6 5 5 5 5 5 5 5 6 6 5 5 5 5 4 4 4 3 4 5 5 5 5 5
8 7 7 7 7 7 7 7 7 7 7 7 6 6 6 5 5 6 5 5 5 5 5 5 5 5 6 5 6 5 5 5 5 4 4 4 4 4 4 5 5 5 5
7 7 6 7 7 7 7 7 7 6 6 5 6 6 5 5 6 5 5 5 5 5 5 5 5 5 6 6 6 6 6 6 5 5 4 5 5 5 5 5 5 6 5
7 7 6 6 6 6 6 6 6 5 5 5 5 5 5 5 5 5 5 5 5 5 5 5 4 5 5 6 6 6 7 7 6 5 5 6 6 6 6 6 6 7 6
6 6 6 5 5 4 4 5 5 5 4 4 4 5 4 4 5 5 5 5 5 5 5 5 5 5 6 6 6 6 6 6 6 5 6 6 7 7 7 7 7 7 7
5 5 4 4 4 4 4 4 4 4 3 3 3 3 3 3 3 4 4 5 5 5 5 5 5 5 6 6 7 7 6 6 6 6 6 7 7 8 8 8 8 7 7
5 5 3 3 3 3 3 3 3 3 3 2 3 3 3 3 3 3 4 5 6 6 6 6 6 6 7 7 8 8 7 7 7 7 7 7 8 9 9 9 9 8 8
5 4 2 2 2 1 1 2 2 2 2 2 2 3 4 4 4 4 4 5 5 6 6 7 7 7 7 8 8 8 8 8 7 7 8 8 8 9 9 10 10 9 9
4 3 2 2 1 0 0 1 2 2 2 2 2 2 3 4 4 5 5 5 6 6 7 7 8 8 8 9 9 9 9 9 9 8 8 9 9 9 10 10 10 10 9
5 4 3 2 1 0 1 1 2 2 2 3 3 3 3 3 4 5 6 6 7 7 8 8 8 9 9 9 10 10 9 10 10 10 10 10 11 11 10 10 10 11 10
6 5 3 2 1 1 1 2 2 2 2 3 3 3 3 4 4 5 6 7 7 8 8 8 9 9 10 10 10 10 10 10 11 11 12 12 12 12 11 11 11 12 12
6 6 5 4 3 2 2 2 3 3 2 3 3 4 4 5 5 6 7 6 7 8 9 9 10 11 11 11 12 12 12 12 11 11 12 13 13 13 12 12 13 13 13
5 5 5 5 4 3 3 3 4 4 3 3 3 3 4 5 6 6 7 7 8 9 9 10 11 11 12 12 13 13 13 12 12 12 12 12 13 13 13 13 13 13 13
5 5 5 5 5 4 4 4 4 5 4 4 4 4 5 5 6 7 8 8 8 9 10 10 11 11 12 12 13 13 13 13 13 13 13 14 14 14 14 14 13 13 13
6 5 6 5 5 5 5 5 5 5 5 5 5 6 6 6 7 8 8 8 9 10 10 10 11 12 12 13 13 13 13 14 14 14 14 15 15 15 15 15 15 15 15
6 6 6 5 5 6 6 6 6 6 6 6 6 7 7 7 7 8 8 9 9 10 11 11 11 12 13 13 14 14 14 15 15 15 15 15 15 15 15 16 16 17 17
5 6 6 6 6 6 6 6 6 6 6 7 7 8 7 7 7 8 8 9 10 11 11 11 12 12 13 14 14 14 15 15 15 16 16 16 16 15 15 16 16 16 17
6 6 6 7 7 6 6 6 7 7 7 8 8 8 8 8 8 8 8 9 10 11 11 11 11 12 14 14 14 14 15 15 16 16 17 17 17 17 17 16 16 16 17
7 7 7 7 8 7 7 7 8 8 8 8 9 9 9 9 9 9 9 10 10 10 10 11 11 12 13 14 15 15 15 16 17 17 18 18 18 18 19 19 18 17 17
7 7 8 8 8 8 8 8 9 9 9 9 9 9 10 10 10 10 11 11 10 10 10 11 12 12 12 14 15 16 16 17 17 18 19 19 19 19 19 19 19 18 18
7 8 8 8 9 8 8 9 9 9 10 11 11 11 12 12 12 12 11 11 11 11 11 11 12 12 13 14 15 16 16 16 17 18 19 19 19 19 19 19 19 19 19
8 9 9 9 9 9 9 9 9 10 10 11 12 12 13 13 12 12 12 12 12 12 12 12 11 12 14 14 15 16 16 17 17 18 19 19 20 20 20 19 19 19 19
9 9 10 10 9 9 9 9 10 10 11 12 12 13 13 13 13 12 12 13 13 13 12 13 13 13 14 14 15 16 17 17 18 18 19 19 21 21 21 20 20 20 20
Wind_Direction
91 89 89 94 96 99 104 113 116 119 125 127 130 129 131 132 135 136 141 149 153 151 152 157 155 160 167 168 170 168 169 176 183 195 200 208 205 203 202 206 202 195 189
94 94 94 99 99 102 110 115 122 125 129 133 133 133 132 136 139 140 145 150 153 153 154 159 161 162 168 172 172 171 173 177 182 190 205 210 199 200 200 203 202 197 196
97 101 103 103 105 107 112 122 126 130 129 130 131 133 136 138 136 142 146 153 157 156 160 167 169 171 171 173 174 173 174 182 186 194 196 206 201 207 210 211 207 202 204
98 104 108 108 112 117 119 122 125 129 129 130 137 143 144 143 144 144 149 154 155 161 167 169 168 171 176 181 184 179 179 183 187 195 202 207 205 209 217 218 213 209 210
95 104 111 112 113 118 120 122 122 126 130 132 142 149 151 151 152 152 152 159 162 167 173 169 173 179 181 187 189 186 187 188 187 198 210 217 211 208 217 222 217 220 223
95 100 106 111 111 114 119 122 123 126 127 130 139 147 152 156 158 160 163 165 168 171 172 175 183 184 188 196 199 196 196 201 200 208 220 216 213 217 222 221 222 224 222
90 93 95 105 110 110 115 123 128 130 130 132 137 145 154 165 171 175 177 178 178 183 187 191 194 191 195 204 211 213 210 213 213 219 223 219 220 223 225 226 225 223 223
81 87 96 110 117 118 116 125 133 135 139 144 152 158 163 172 182 186 191 195 196 198 199 202 209 210 200 209 215 220 216 221 220 225 232 228 224 223 228 231 228 226 229
76 89 91 103 118 123 130 133 142 147 154 159 174 183 184 185 189 197 205 209 210 208 210 212 218 218 214 218 220 224 227 228 229 235 237 234 232 230 231 233 232 231 230
68 84 93 100 114 128 141 150 153 162 169 185 200 209 213 214 214 216 222 214 210 214 219 221 223 225 225 225 225 225 228 231 235 240 242 237 236 235 236 237 235 232 233
60 70 83 103 116 131 156 172 183 193 202 215 220 226 231 234 232 236 236 226 222 225 229 227 228 231 230 230 230 231 231 236 240 241 242 239 237 235 237 239 237 238 235
54 52 57 63 75 134 186 197 226 231 233 241 242 241 242 243 243 244 241 236 232 236 238 237 237 235 234 235 236 237 235 238 244 242 243 241 242 243 240 241 241 239 238
54 49 54 66 87 295 303 291 272 266 250 257 256 251 247 244 244 244 246 247 244 244 245 241 238 238 236 239 243 243 240 239 243 245 246 245 246 249 247 248 249 245 243
40 42 48 42 12 13 0 331 310 295 273 263 264 264 262 261 262 261 260 258 253 253 251 248 246 242 241 244 247 249 246 243 243 246 247 246 246 249 251 252 252 253 251
27 28 25 19 11 10 355 336 326 315 298 282 274 272 273 271 271 274 276 269 261 260 257 252 247 247 248 249 251 252 249 246 245 246 246 246 248 250 252 254 253 255 254
19 19 19 15 0 352 341 345 344 334 312 300 302 297 291 288 287 283 281 274 268 266 263 258 252 250 252 253 252 251 247 247 249 249 249 249 249 251 252 252 252 254 252
12 14 9 2 354 344 343 344 337 335 324 304 311 312 303 300 294 288 285 279 273 270 266 261 256 254 255 253 252 250 248 247 248 248 249 250 251 252 254 253 253 254 251
5 5 360 0 359 351 348 350 341 336 330 314 308 310 307 303 296 290 285 282 278 277 273 266 256 254 255 256 256 255 251 251 252 252 253 254 254 253 253 252 252 253 250
358 360 359 358 357 357 352 347 344 339 331 320 317 315 312 305 298 293 289 285 280 278 275 270 264 258 256 257 257 255 255 257 257 255 254 255 256 254 252 251 252 252 251
352 354 355 352 352 350 346 340 337 334 330 326 320 317 314 312 307 301 291 286 281 280 276 272 265 262 258 260 259 258 259 258 256 255 253 252 253 253 254 253 254 253 251
347 346 345 344 342 342 342 340 336 333 330 328 326 324 322 316 312 306 298 289 283 280 277 274 267 263 262 262 261 262 259 257 256 256 254 252 252 254 254 256 254 254 253
342 341 341 341 339 338 339 339 334 330 329 327 327 326 325 322 315 310 303 301 290 281 277 273 271 268 264 259 261 264 263 261 259 257 255 254 254 254 254 256 255 254 254
341 343 342 341 340 337 335 333 334 332 327 325 323 323 324 322 318 311 304 302 295 287 280 278 275 272 268 266 266 265 264 262 263 261 258 256 256 256 256 254 254 255 256
338 338 339 339 338 336 333 333 333 332 329 326 326 323 321 321 317 312 310 307 300 293 286 281 278 273 273 272 270 268 266 264 263 262 258 258 257 256 257 256 254 253 255
330 333 333 334 334 333 333 331 331 331 330 329 327 325 322 320 317 313 312 312 309 301 291 285 282 280 277 275 273 271 268 266 267 263 261 260 258 257 256 256 256 254 255
324 327 329 329 329 330 332 332 331 331 331 331 329 327 325 323 319 316 316 318 312 306 300 289 281 283 280 278 276 274 270 268 270 267 262 261 259 257 257 255 255 255 256
Height
5886 5885 5884 5884 5884 5884 5884 5884 5884 5885 5885 5886 5887 5887 5888 5889 5889 5890 5890 5891 5892 5893 5893 5894 5895 5895 5896 5897 5898 5898 5899 5900 5901 5902 5902 5903 5903 5904 5905 5905 5906 5906 5906
5887 5886 5886 5885 5885 5885 5886 5886 5886 5886 5886 5887 5887 5888 5889 5889 5890 5890 5891 5891 5892 5893 5893 5894 5895 5895 5896 5897 5898 5898 5899 5900 5901 5901 5902 5902 5903 5904 5905 5905 5905 5906 5906
5888 5887 5887 5887 5887 5887 5887 5887 5887 5887 5887 5888 5888 5889 5889 5890 5890 5891 5891 5892 5892 5893 5894 5894 5894 5895 5896 5897 5898 5898 5899 5900 5901 5901 5902 5902 5903 5904 5904 5905 5905 5906 5906
5888 5888 5888 5888 5888 5888 5888 5888 5888 5888 5888 5888 5889 5889 5889 5890 5890 5891 5891 5892 5893 5893 5894 5894 5894 5895 5896 5897 5898 5898 5899 5900 5900 5901 5902 5902 5902 5903 5904 5905 5905 5906 5906
5889 5889 5888 5888 5888 5888 5888 5888 5888 5889 5889 5889 5889 5890 5890 5890 5891 5891 5892 5892 5893 5893 5894 5894 5894 5895 5896 5896 5897 5898 5899 5899 5900 5901 5901 5902 5902 5903 5904 5904 5905 5905 5905
5890 5890 5889 5889 5889 5889 5889 5889 5889 5889 5890 5890 5890 5890 5890 5891 5891 5892 5892 5892 5893 5893 5894 5894 5894 5895 5895 5896 5897 5897 5898 5899 5899 5900 5901 5901 5902 5902 5903 5904 5904 5904 5905
5891 5890 5890 5890 5890 5890 5890 5889 5890 5890 5890 5890 5890 5890 5891 5891 5891 5891 5892 5892 5893 5893 5893 5894 5894 5894 5895 5896 5896 5897 5898 5898 5899 5899 5900 5900 5901 5901 5902 5903 5903 5903 5904
5892 5891 5891 5891 5891 5890 5890 5890 5890 5890 5890 5890 5890 5890 5890 5891 5891 5891 5892 5892 5892 5893 5893 5893 5894 5893 5894 5895 5896 5896 5897 5897 5897 5898 5898 5899 5900 5900 5901 5901 5902 5902 5903
5892 5892 5891 5891 5891 5891 5891 5890 5890 5890 5890 5890 5890 5890 5890 5890 5890 5890 5891 5891 5892 5892 5893 5893 5893 5893 5894 5894 5895 5895 5896 5896 5897 5897 5897 5898 5899 5899 5900 5900 5901 5901 5902
5893 5893 5892 5892 5891 5891 5891 5891 5890 5890 5890 5889 5889 5889 5889 5889 5889 5889 5889 5890 5891 5891 5891 5892 5892 5892 5893 5893 5894 5894 5895 5895 5895 5896 5896 5897 5897 5898 5898 5899 5899 5900 5900
5894 5893 5892 5892 5892 5891 5891 5891 5890 5890 5889 5889 5888 5888 5888 5888 5888 5888 5889 5889 5889 5890 5890 5890 5891 5891 5891 5892 5892 5893 5893 5893 5894 5894 5895 5895 5896 5896 5897 5897 5898 5898 5899
5894 5893 5892 5892 5892 5891 5891 5890 5890 5889 5889 5888 5888 5887 5887 5887 5887 5887 5888 5888 5888 5888 5888 5888 5888 5889 5889 5890 5890 5891 5891 5892 5892 5892 5893 5894 5894 5895 5895 5895 5896 5896 5897
5895 5894 5892 5892 5891 5891 5890 5890 5889 5888 5888 5887 5887 5887 5887 5886 5886 5886 5886 5886 5886 5886 5886 5886 5887 5887 5887 5888 5888 5889 5889 5890 5890 5890 5891 5892 5892 5893 5893 5893 5894 5894 5895
5896 5894 5893 5892 5892 5891 5890 5889 5888 5887 5887 5886 5886 5886 5886 5886 5885 5885 5885 5885 5885 5885 5885 5885 5885 5885 5885 5885 5886 5887 5887 5887 5887 5888 5889 5889 5890 5890 5891 5891 5892 5892 5893
5896 5895 5894 5893 5892 5891 5890 5889 5888 5887 5886 5886 5886 5885 5885 5884 5884 5884 5883 5883 5883 5883 5883 5883 5882 5883 5883 5883 5884 5884 5885 5885 5885 5886 5886 5886 5887 5888 5888 5889 5889 5890 5890
5897 5896 5894 5893 5892 5891 5890 5888 5888 5887 5886 5885 5885 5884 5884 5883 5882 5882 5881 5881 5881 5880 5880 5880 5880 5880 5881 5881 5881 5882 5882 5882 5882 5883 5883 5884 5884 5885 5886 5886 5887 5887 5888
5897 5896 5894 5893 5891 5890 5889 5888 5887 5886 5885 5884 5884 5883 5882 5881 5881 5880 5879 5879 5878 5878 5878 5877 5877 5878 5878 5878 5878 5878 5879 5879 5879 5880 5880 5881 5882 5882 5883 5883 5884 5884 5885
5898 5896 5894 5893 5891 5890 5889 5887 5886 5885 5884 5884 5883 5882 5881 5880 5879 5878 5877 5877 5876 5876 5876 5875 5875 5875 5875 5875 5875 5875 5876 5876 5876 5877 5877 5878 5878 5879 5879 5880 5881 5882 5882
5898 5896 5894 5893 5891 5890 5889 5887 5886 5884 5883 5882 5881 5881 5879 5878 5877 5876 5875 5874 5874 5874 5873 5873 5872 5872 5872 5872 5872 5872 5873 5873 5873 5874 5874 5875 5875 5875 5876 5877 5877 5878 5879
5897 5896 5894 5893 5891 5890 5888 5887 5885 5884 5882 5881 5880 5879 5877 5876 5875 5874 5873 5872 5871 5871 5870 5870 5869 5869 5869 5869 5869 5869 5869 5870 5870 5870 5871 5871 5872 5872 5873 5873 5874 5874 5875
5897 5895 5894 5892 5890 5889 5888 5886 5885 5883 5882 5880 5879 5877 5876 5875 5873 5872 5871 5870 5869 5868 5867 5866 5866 5866 5866 5866 5866 5866 5866 5866 5866 5867 5867 5868 5868 5869 5869 5869 5870 5870 5871
5896 5895 5893 5891 5890 5888 5887 5885 5884 5882 5881 5879 5877 5876 5874 5873 5871 5870 5869 5867 5866 5865 5864 5864 5863 5863 5862 5862 5862 5863 5862 5863 5862 5863 5863 5864 5864 5865 5865 5866 5866 5866 5867
5895 5894 5892 5891 5889 5888 5886 5885 5883 5881 5879 5878 5876 5874 5873 5871 5869 5868 5866 5865 5863 5862 5862 5861 5860 5859 5859 5859 5859 5859 5859 5859 5858 5859 5859 5859 5860 5860 5861 5861 5862 5862 5863
5895 5893 5892 5890 5889 5887 5885 5884 5882 5880 5878 5876 5874 5872 5871 5869 5867 5865 5864 5862 5860 5859 5858 5858 5857 5856 5855 5855 5854 5854 5854 5854 5854 5854 5855 5855 5855 5856 5856 5857 5858 5858 5859
5894 5892 5891 5889 5887 5886 5884 5882 5880 5879 5877 5874 5872 5870 5868 5866 5864 5863 5861 5860 5858 5856 5855 5854 5853 5853 5852 5851 5850 5850 5850 5850 5849 5850 5850 5850 5850 5851 5852 5852 5853 5854 5854
5893 5891 5890 5888 5886 5884 5882 5881 5879 5877 5875 5872 5870 5868 5866 5864 5862 5860 5859 5857 5855 5853 5852 5851 5850 5849 5848 5847 5846 5846 5845 5845 5845 5845 5845 5845 5845 5846 5847 5847 5848 5849 5849